COSMOS 1253

Satellite information

Favourite Embed

Satellite Type and Status

PAYLOADIN ORBIT

Key statistics

Satellite COSMOS 1253 at a glance.

Uptime

16136

Days in orbit

Revolutions

≈ 12.5

Per day

Orbit

LEO

Low Earth Orbit

Inclination

74.0

Latest

Satellite identification and parameters

Extended collection of information and parameters for COSMOS 1253.

Object identification

Identified? True

Debris? False

Object name: COSMOS 1253

International designator: 1981-022D

Object number (NORAD): 12323

Object ID (CCSDS): 12323

Country: COMMONWEALTH OF INDEPENDENT STATES (CIS)

Current information (Y/N): Y

RCS size: MEDIUM

Orbital parameters

Period: 115.585 minutes

Inclination: 74.0291 deg

SMA: 7860.107 km

Apoapsis: 1496.248 km

Periapsis: 1467.697 km

RAAN: 313.9513 deg

Eccentricy: 0.0018162

Argument of periapsis: 292.7054 deg

Mean anomaly: 176.7018 deg

Mean motion: 12.45833678 rev/day

Mean motion (dot): 0.00000005 rev/day2

B* drag term: 0.00014326 1/REarth

Two-line elements (TLE)

Creation date: May 10, 2025, 2:32 a.m.

Reference frame: TEME

Reference center: EARTH

Epoch: May 9, 2025, 7:37 p.m. UTC

TLE line 0: 0 COSMOS 1253

TLE line 1: 1 12323U 81022D 25129.81765197 .00000005 00000-0 14326-3 0 9991

TLE line 2: 2 12323 74.0291 313.9513 0018162 292.7054 176.7018 12.45833678 9082

Live tracking on map

Real-time ground track for satellite COSMOS 1253.

In-orbit conjunctions

There are no conjunctions computed for COSMOS 1253, at the moment. Check back to stay up to date, as we update our databases every day.

Go to all conjunctions

Associated space launch

Military communications satellites

COSMOS 1253 was lifted into orbit during the mission ‘Kosmos-3M | Strela-1M 209-216’, on board a Kosmos-3M space rocket.

The launch took place on March 6, 1981, 11:31 a.m. from 132/2.

For more information about the launch, click the button.

Launch to space Kosmos-3M | Strela-1M 209-216
Kosmos-3M | Strela-1M 209-216

Agency: N/A

Status: Launch Successful

Launch date: March 6, 1981, 11:31 a.m. UTC

Rocket: Kosmos-3M

Launch pad: 132/2

Location: Plesetsk Cosmodrome, Russian Federation

...

Latest news about this satellite

There are no fresh news available about this satellite. Check back as we update our databases every day.


Newsletter sign-up

Weekly statistics, charts and insights to help you stay on top of the space industry.